Location: Newark
(35.2672°N, 80.7344°W)
Time: 00:30:54
(UTC+00:00)

LightSail 2 - Visible Passes

Search period start: 22 January 2021 00:00
Search period end: 01 February 2021 00:00
Orbit: 684 x 713 km, 24.0° (Epoch: 21 January)

Date Brightness Start Highest point End Pass type
(mag) Time Alt. Az. Time Alt. Az. Time Alt. Az.
22 Jan 7.8 11:05:18 10° S 11:06:45 11° SSE 11:08:13 10° SE visible
23 Jan 7.5 11:45:35 10° SSW 11:48:53 18° S 11:52:13 10° SE visible
24 Jan 7.5 10:43:50 10° SSW 10:46:34 15° SSE 10:49:17 10° SE visible
25 Jan 7.7 09:44:39 11° SSE 09:44:39 11° SSE 09:45:50 10° SE visible
25 Jan 7.2 11:25:04 10° SW 11:28:42 20° S 11:32:21 10° SE visible
26 Jan 7.1 10:24:48 16° SSW 10:26:20 18° S 10:29:40 10° SE visible
27 Jan 7.8 09:26:13 12° SE 09:26:13 12° SE 09:26:45 10° SE visible
27 Jan 6.9 11:04:53 11° SW 11:08:29 22° S 11:12:16 10° SE visible
28 Jan 6.9 10:06:13 20° S 10:06:13 20° S 10:09:43 10° SE visible
28 Jan 7.0 11:46:54 10° SW 11:50:38 21° S 11:54:20 10° SE visible
29 Jan 6.8 10:46:09 17° SW 10:48:12 22° S 10:52:01 10° SE visible
30 Jan 7.2 09:47:24 19° SSE 09:47:24 19° SSE 09:49:33 10° SE visible
30 Jan 7.0 11:26:50 10° SW 11:30:18 19° S 11:33:46 10° SE visible
31 Jan 6.7 10:27:17 20° SSW 10:27:51 21° S 10:31:33 10° SE visible
